This demonstration page uses our WeatherBlox Daily Observations layout. Learn more.

Left ArrowRight Arrow

39.01783, -85.05884

Hourly Observations for September 3, 2018

Temp ( °F °C ) Dew Point ( °F °C ) Humidity (%) Winds ( mph kmh ) Pressure ( in mb ) Visibility ( mi km ) Precip ( " mm )
12:52 am 00:52 Clear 77 25 72 22.2 85 85 S 7 11 30.19 1022 10 16 N/A
1:52 am 01:52 Partly Cloudy 75 23.9 72 22.2 90 90 S 5 7 30.18 1022 10 16 N/A
2:52 am 02:52 Mostly Cloudy 74 23.3 72 22.2 94 94 S 5 7 30.17 1022 10 16 N/A
3:52 am 03:52 Mostly Cloudy 74 23.3 71 21.7 91 91 S 6 9 30.18 1022 10 16 N/A
4:52 am 04:52 Partly Cloudy 75 23.9 72 22.2 90 90 SW 3 6 30.19 1022 10 16 N/A
5:52 am 05:52 Partly Cloudy 71 21.7 71 21.7 100 100 S 6 9 30.19 1022 10 16 N/A
6:52 am 06:52 Mostly Clear 73 22.8 72 22.2 96 96 SSE 3 6 30.20 1023 10 16 N/A
7:52 am 07:52 Mostly Sunny 73 22.8 72 22.2 96 96 S 3 6 30.22 1024 10 16 N/A
8:52 am 08:52 Sunny 78 25.6 73 22.8 85 85 S 8 13 30.24 1024 10 16 N/A
9:52 am 09:52 Sunny 82 27.8 73 22.8 74 74 SW 6 9 30.25 1024 10 16 N/A
10:52 am 10:52 Sunny 85 29.4 73 22.8 68 68 WSW 6 9 30.25 1025 10 16 N/A
11:52 am 11:52 Sunny 88 31.1 73 22.8 61 61 W 6 9 30.25 1024 10 16 N/A
12:52 pm 12:52 Partly Cloudy 89 31.7 72 22.2 57 57 WSW 7 11 30.24 1024 10 16 N/A
1:52 pm 13:52 Partly Cloudy 90 32.2 73 22.8 58 58 SSW 6 9 30.22 1024 10 16 N/A
2:52 pm 14:52 Partly Cloudy 90 32.2 71 21.7 54 54 SW 6 9 30.21 1023 10 16 N/A
3:52 pm 15:52 Partly Cloudy 91 32.8 70 21.1 50 50 SSW 6 9 30.18 1022 10 16 N/A
4:52 pm 16:52 Mostly Sunny 90 32.2 71 21.7 54 54 S 6 9 30.17 1022 10 16 N/A
5:52 pm 17:52 Mostly Sunny 89 31.7 71 21.7 55 55 SW 6 9 30.17 1022 10 16 N/A
6:41 pm 18:41 Partly Cloudy with Thunderstorms 88 31.1 72 22.2 59 59 SSW 5 7 30.15 1021 10 16 N/A
6:52 pm 18:52 Partly Cloudy with Thunderstorms 88 31.1 71 21.7 57 57 SW 5 7 30.18 1022 10 16 N/A
7:01 pm 19:01 Mostly Sunny 88 31.1 72 22.2 59 59 SSW 5 7 30.15 1021 10 16 N/A
7:52 pm 19:52 Mostly Sunny 84 28.9 72 22.2 67 67 S 6 9 30.18 1022 10 16 N/A
8:52 pm 20:52 Mostly Clear 81 27.2 71 21.7 72 72 N N/A 30.20 1023 10 16 N/A
9:52 pm 21:52 Mostly Clear 81 27.2 71 21.7 72 72 N N/A 30.22 1023 10 16 N/A
10:52 pm 22:52 Clear 79 26.1 71 21.7 77 77 SE 5 7 30.22 1023 10 16 N/A
11:52 pm 23:52 Clear 79 26.1 71 21.7 77 77 SSE 3 6 30.23 1024 10 16 N/A

Powered by AerisWeather